{"data":{"norad_id":63730,"intl_designator":"2025-088G","name":"KUIPER-00014","alt_names":[],"object_type":"PAYLOAD","status":"ACTIVE","operator":null,"country":"US","launch_date":"2025-04-28","launch_site_code":"AFETR","launch_vehicle":null,"mission":null,"orbit_class":"UNKNOWN","rcs_meters":null,"size_class":null,"mass_kg":null,"dimensions":null,"purposes":[],"wikipedia_slug":null,"has_3d_model":false,"image_url":null,"decayed_at":null,"tle_current":{"epoch":"2026-09-21T09:10:15.217248Z","epoch_age_seconds":128586,"freshness":"FRESH","line1":"1 63730U 25088G   26264.38212057 -.00002092  00000+0 -24558-3 0  9991","line2":"2 63730  51.9073 322.7162 0000992  96.7588 263.3488 14.79919098 76365","mean_motion":14.79919098,"eccentricity":9.92e-5,"inclination_deg":51.9073,"raan_deg":322.7162,"arg_perigee_deg":96.7588,"mean_anomaly_deg":263.3488,"bstar":-0.00024558,"rev_number":7636,"period_min":97.302616200173,"perigee_km":628.88434920935,"apogee_km":630.27468016587,"semimajor_km":7007.7165146876,"source":"CELESTRAK","updated_at":"2026-09-22T09:00:29.316558Z"}}}